Flag for Pakistan Weather past 2 weeks in Karachi, Sindh, Pakistan

Now
77 °F

Scattered clouds.


Feels Like: 78 °F
Forecast: 64 / 77 °F
Wind: 18 mph from Southwest

Location: Karachi Airport

Current Time: Mar 3, 2015 at 6:06:20 PM

Latest Report: Mar 3, 2015 at 4:25 PM


Visibility: 5 mi

Pressure: 29.89 "Hg

Humidity: 44%

Dew point: 54 °F

Location of KarachiLocation

Historic Weather in Karachi — Graph

°F

Karachi temperature yesterday

Maximum temperature yesterday: 79 °F (at 1:55 PM)
Minimum temperature yesterday: 55 °F (at 7:25 AM)
Average temperature yesterday: 68 °F

Past Weeks' High & Low Weather Summary

 TemperatureHumidityPressure
High91 °F (Feb 21, 3:55 PM)94% (Feb 17, 11:55 PM)30.07 "Hg (Feb 17, 11:55 PM)
Low55 °F (Mar 2, 7:25 AM)11% (Feb 25, 2:55 PM)29.74 "Hg (Feb 28, 3:25 PM)
Average73 °F51%29.90 "Hg
* Reported Feb 16 4:25 PM — Mar 3 4:25 PM, Karachi, Weather by CustomWeather, © 2015

Note: Actual official high and low records may vary slightly from our data, if they occured in-between our weather recording intervals... More about our weather records

Advertising

Karachi weather history for previous 24 hours

 ConditionsComfort  
Time TempWeatherWind HumidityBarometerVisibility
4:25 PM
Tue, Mar 3
77 °FScattered clouds.18 mph44%29.89 "Hg5 mi
3:55 PM79 °FScattered clouds.18 mph42%29.89 "Hg5 mi
3:25 PM79 °FScattered clouds.14 mph42%29.89 "Hg5 mi
2:55 PM79 °FScattered clouds.18 mph42%29.92 "Hg5 mi
2:25 PM79 °FPartly sunny.15 mph42%29.92 "Hg4 mi
1:55 PM81 °FPartly sunny.10 mph34%29.95 "Hg4 mi
1:25 PM79 °FPartly sunny.9 mph37%29.95 "Hg4 mi
12:55 PM79 °FPartly sunny.9 mph37%29.95 "Hg4 mi
12:25 PM79 °FPartly sunny.14 mph37%29.98 "Hg4 mi
11:55 AM79 °FScattered clouds.10 mph37%29.98 "Hg4 mi
11:25 AM77 °FScattered clouds.13 mph42%30.01 "Hg4 mi
10:55 AM73 °FScattered clouds.8 mph50%30.01 "Hg4 mi
10:25 AM73 °FScattered clouds.8 mph50%30.01 "Hg4 mi
9:55 AM73 °FPassing clouds.7 mph50%30.01 "Hg4 mi
9:25 AM72 °FPassing clouds.3 mph53%30.01 "Hg4 mi
8:55 AM70 °FPassing clouds.2 mph50%29.98 "Hg4 mi
8:25 AM68 °FPassing clouds.3 mph53%29.98 "Hg4 mi
7:55 AM64 °FPassing clouds.3 mph56%29.98 "Hg4 mi
7:25 AM63 °FClear.5 mph59%29.95 "Hg4 mi
6:55 AM63 °FClear.3 mph59%29.95 "Hg4 mi
6:25 AM63 °FClear.3 mph59%29.95 "Hg4 mi
4:55 AM63 °FClear.No wind59%29.92 "Hg4 mi
4:25 AM64 °FClear.5 mph52%29.92 "Hg4 mi
3:55 AM64 °FClear.7 mph52%29.92 "Hg4 mi
2:55 AM68 °FClear.3 mph46%29.95 "Hg4 mi
2:25 AM68 °FClear.9 mph46%29.95 "Hg4 mi
1:55 AM68 °FClear.12 mph46%29.95 "Hg4 mi
1:25 AM68 °FClear.No wind43%29.95 "Hg4 mi
12:55 AM68 °FClear.9 mph43%29.98 "Hg4 mi
12:25 AM68 °FClear.7 mph46%29.98 "Hg4 mi
11:55 PM
Mon, Mar 2
68 °FClear.7 mph46%29.98 "Hg4 mi
11:25 PM68 °FClear.9 mph46%29.98 "Hg4 mi
10:55 PM70 °FClear.8 mph46%29.98 "Hg4 mi
10:25 PM70 °FClear.10 mph46%29.98 "Hg4 mi
9:55 PM70 °FClear.5 mph43%29.98 "Hg4 mi
9:25 PM70 °FPassing clouds.12 mph43%29.95 "Hg4 mi
8:25 PM70 °FPassing clouds.14 mph46%29.95 "Hg4 mi
7:55 PM72 °FPassing clouds.14 mph44%29.95 "Hg4 mi
7:25 PM72 °FPassing clouds.14 mph44%29.92 "Hg4 mi
6:55 PM72 °FPassing clouds.16 mph41%29.92 "Hg4 mi
6:25 PM73 °FPassing clouds.18 mph33%29.92 "Hg5 mi
Weather by CustomWeather, © 2015

See weather overviewHow to use our weather pages